Lobo

Go HERE for most recent data if this page is not up to date.

Jump to table bottom
Date/Time Temp deg F RH % 24 Hr Snow (in) Snow Depth (in) H2O (in)
11/26 16:00 28.8 74 0.6 *"2021-11-2 0.00
11/26 15:00 27.6 79 0.6 *"2021-11-2 0.02
11/26 14:00 29.3 72 0.2 *"2021-11-2 0.00
11/26 13:00 31.9 74 0.0 *"2021-11-2 0.02
11/26 12:00 34.0 55 -0.0 *"2021-11-2 0.00
11/26 11:00 33.4 60 0.0 *"2021-11-2 0.00
11/26 10:00 33.3 48 -0.0 *"2021-11-2 0.00
11/26 09:00 32.7 59 -0.0 *"2021-11-2 0.00
11/26 08:00 32.5 63 0.0 *"2021-11-2 0.00
11/26 07:00 34.1 51 -0.0 *"2021-11-2 0.00
11/26 06:00 34.5 43 -0.0 *"2021-11-2 0.00
11/26 05:00 34.8 42 -0.0 *"2021-11-2 0.00
11/26 04:00 35.3 43 -0.0 *"2021-11-2 0.00
11/26 03:00 35.5 44 -0.0 *"2021-11-2 0.00
11/26 02:00 34.9 48 -0.1 *"2021-11-2 0.00
11/26 01:00 33.3 53 -0.1 *"2021-11-2 0.00
11/26 00:00 31.7 57 -0.2 *"2021-11-2 0.00
11/25 23:00 32.2 62 -0.0 *"2021-11-2 0.00
11/25 22:00 29.2 61 -0.0 *"2021-11-2 0.00
11/25 21:00 30.2 59 0.0 *"2021-11-2 0.00
11/25 20:00 29.6 56 0.0 *"2021-11-2 0.00
11/25 19:00 29.2 58 0.1 *"2021-11-2 0.00
11/25 18:00 31.7 47 0.0 *"2021-11-2 0.00
11/25 17:00 33.0 46 -0.0 *"2021-11-2 0.00
11/25 16:00 34.0 40 -0.0 *"2021-11-2 0.00
11/25 15:00 34.5 46 -0.0 *"2021-11-2 0.00
11/25 14:00 34.0 44 -0.1 *"2021-11-2 0.00
11/25 13:00 33.4 47 -0.0 *"2021-11-2 0.00
11/25 12:00 31.4 44 -0.0 *"2021-11-2 0.00
11/25 11:00 29.1 35 0.0 *"2021-11-2 0.00
11/25 10:00 30.4 38 -0.0 *"2021-11-2 0.00
11/25 09:00 28.3 43 -0.0 *"2021-11-2 0.00
11/25 08:00 23.9 44 0.2 *"2021-11-2 0.00
11/25 07:00 23.1 41 0.3 *"2021-11-2 0.00
11/25 06:00 22.8 41 0.2 *"2021-11-2 0.00
11/25 05:00 22.1 41 0.3 *"2021-11-2 0.00
11/25 04:00 21.7 38 0.3 *"2021-11-2 0.00
11/25 03:00 20.7 42 0.3 *"2021-11-2 0.00
11/25 02:00 17.0 41 0.4 *"2021-11-2 0.00
11/25 01:00 14.9 52 0.4 *"2021-11-2 0.00
11/25 00:00 15.4 51 0.4 *"2021-11-2 0.00
.